Location: Holbach
(51.5399°N, 10.6036°E)
Time: 17:28:17
(UTC+00:00)

ATLAS 2AS CENTAUR R/B - Visible Passes

Search period start: 26 January 2021 00:00
Search period end: 05 February 2021 00:00
Orbit: 943 x 1268 km, 63.7° (Epoch: 22 January)

Date Brightness Start Highest point End Pass type
(mag) Time Alt. Az. Time Alt. Az. Time Alt. Az.
26 Jan 4.0 17:27:28 10° WNW 17:34:37 36° NNW 17:40:11 15° NE visible
26 Jan 3.7 19:20:32 10° NW 19:27:36 36° NNE 19:27:37 36° NNE visible
26 Jan 4.7 21:12:13 10° NW 21:15:03 25° NW 21:15:03 25° NW visible
27 Jan 3.9 16:41:53 10° W 16:49:14 40° NNW 16:56:20 10° NE visible
27 Jan 3.8 18:35:13 10° WNW 18:42:11 34° N 18:44:15 29° NE visible
27 Jan 4.1 20:27:15 10° NW 20:31:41 35° NNW 20:31:41 35° NNW visible
27 Jan 5.4 22:18:36 10° NW 22:19:08 12° NW 22:19:08 12° NW visible
28 Jan 4.0 17:49:47 10° WNW 17:56:44 33° N 18:00:54 20° NE visible
28 Jan 3.6 19:42:13 10° NW 19:48:21 42° N 19:48:21 42° N visible
28 Jan 4.9 21:33:35 10° NW 21:35:47 21° NW 21:35:47 21° NW visible
29 Jan 4.0 17:04:15 10° WNW 17:11:18 34° N 17:17:35 12° NE visible
29 Jan 3.5 18:57:06 10° NW 19:04:15 39° NNE 19:05:01 38° NNE visible
29 Jan 4.2 20:48:38 10° NW 20:52:27 32° NW 20:52:27 32° NW visible
30 Jan 3.8 18:11:52 10° NW 18:18:52 35° N 18:21:42 27° NE visible
30 Jan 3.6 20:03:41 10° NW 20:09:08 46° NNW 20:09:08 46° NNW visible
30 Jan 5.1 21:55:06 10° NW 21:56:34 16° NW 21:56:34 16° NW visible
31 Jan 3.9 17:26:30 10° WNW 17:33:27 33° N 17:38:24 17° ENE visible
31 Jan 3.2 19:18:41 10° NW 19:25:50 50° NNE 19:25:50 50° NNE visible
31 Jan 4.5 21:10:02 10° NW 21:13:17 27° NW 21:13:17 27° NW visible
01 Feb 3.9 16:41:01 10° WNW 16:48:00 33° N 16:54:39 10° ENE visible
01 Feb 3.4 18:33:38 10° NW 18:40:53 42° NNE 18:42:34 37° NE visible
01 Feb 3.7 20:25:03 10° NW 20:30:01 45° NW 20:30:01 45° NW visible
01 Feb 5.3 22:17:03 10° WNW 22:17:27 11° WNW 22:17:27 11° WNW visible
02 Feb 3.7 17:48:28 10° NW 17:55:33 37° NNE 17:59:20 23° ENE visible
02 Feb 3.0 19:40:06 10° NW 19:46:47 65° N 19:46:47 65° N visible
02 Feb 4.8 21:31:39 10° NW 21:34:13 21° WNW 21:34:13 21° WNW visible
03 Feb 3.8 17:03:10 10° NW 17:10:09 34° N 17:16:08 12° ENE visible
03 Feb 2.9 18:55:08 10° NW 19:02:40 57° NE 19:03:35 54° ENE visible
03 Feb 4.1 20:46:30 10° NW 20:51:02 36° WNW 20:51:02 36° WNW visible
04 Feb 3.3 18:10:07 10° NW 18:17:29 46° NNE 18:20:25 32° ENE visible
04 Feb 3.1 20:01:29 10° NW 20:07:52 62° WNW 20:07:52 62° WNW visible
04 Feb 5.2 21:53:56 10° WNW 21:55:19 14° WNW 21:55:19 14° WNW visible
